Regional Weather Roundup
Issued by NWS

Home | Current Version | Previous Version | Graphics & Text | Print | Product List | Glossary On
Versions: 1 2 3 4 5 6 7 8 9 10 11 12 13 14 15 16 17 18 19 20 21 22 23 24 25 26 27 28 29 30 31 32 33 34 35 36 37 38 39 40 41 42 43 44 45 46 47 48 49 50
000
ASUS45 KABQ 271210
RWRNM
WEATHER ROUNDUP FOR NEW MEXICO
NATIONAL WEATHER SERVICE ALBUQUERQUE NM
600 AM MDT FRI MAR 27 2015

NOTE: "FAIR" MEANS FEW OR NO CLOUDS BELOW 12,000 FEET AGL WITH NO
       SIGNIFICANT WEATHER OR OBSTRUCTIONS TO VISION.

      THIS PRODUCT IS RELEASED AS TWO VERSIONS.  ONE VERSION NEAR
      THE TOP OF THE HOUR CONTAINING PRELIMINARY DATA FROM ALBUQUERQUE
      AND OTHER STATIONS.  A FINAL VERSION WITH ADDITIONAL DATA IS
      ISSUED ABOUT 10 MINUTES AFTER THE HOUR.

NMZ501-503-504-510>518-271300-
NORTHWEST PLATEAU/NORTHCENTRAL MOUNTAINS

CITY           SKY/WX    TMP DP  RH WIND       PRES   REMARKS
FARMINGTON     CLEAR     35  17  47 E8        30.29R WCI  29
6HR MIN TEMP:  33; 6HR MAX TEMP:  51;

LOS ALAMOS     CLEAR     47  15  28 N3        30.30S
SANTA FE       CLEAR     35  18  49 N12       30.26S WCI  27
6HR MIN TEMP:  31; 6HR MAX TEMP:  39;

TAOS           PTCLDY    28  16  59 CALM      30.31R
ANGEL FIRE     FAIR      25  20  83 CALM      30.34R

$$
NMZ402-403-502-505>509-271300-
WESTCENTRAL MOUNTAINS/SOUTHWEST MOUNTAINS

CITY           SKY/WX    TMP DP  RH WIND       PRES   REMARKS
GALLUP         PTCLDY    24  11  57 CALM      30.35R
6HR MIN TEMP:  22; 6HR MAX TEMP:  38;

GRANTS         CLEAR     22  13  66 CALM      30.35S
SILVER CITY    CLEAR     37  19  48 SW3       30.29S

$$
NMZ407-409-411-412-271300-
SOUTHERN DESERTS

CITY           SKY/WX    TMP DP  RH WIND       PRES   REMARKS
LORDSBURG      FAIR      34  23  64 S5        30.25R WCI  30
DEMING         CLEAR     37  21  52 SW3       30.25R
6HR MIN TEMP:  37; 6HR MAX TEMP:  48;

LAS CRUCES     CLEAR     40  21  46 NW3       30.26R
HOLLOMAN AFB   MOCLDY    37  20  49 N3        30.24R
ALAMOGORDO     PTCLDY    43  19  39 CALM      30.26R
T OR C         CLEAR     49  16  26 NW6       30.25S
6HR MIN TEMP:  42; 6HR MAX TEMP:  50;


$$
NMZ519>523-271300-
CENTRAL VALLEYS/CENTRAL HIGHLANDS

CITY           SKY/WX    TMP DP  RH WIND       PRES   REMARKS
ALBUQUERQUE    CLEAR     45  20  36 CALM      30.28R
6HR MIN TEMP:  44; 6HR MAX TEMP:  51;

DOUBLE EAGLE   CLEAR     30  16  55 W7        30.29S WCI  23
MORIARTY ARPT  FAIR      31  16  54 CALM      30.29R
6HR MIN TEMP:  29; 6HR MAX TEMP:  47;

CLINES CORNERS PTCLDY    37  15  40 NW10      30.26R WCI  30
6HR MIN TEMP:  35; 6HR MAX TEMP:  50;

BELEN          FAIR      37  20  51 CALM      30.28R
6HR MIN TEMP:  34; 6HR MAX TEMP:  44;

SOCORRO        FAIR      36  17  46 CALM      30.27S
6HR MIN TEMP:  35; 6HR MAX TEMP:  50;


$$
NMZ524>526-539-540-271300-
SOUTHCENTRAL MOUNTAINS

CITY           SKY/WX    TMP DP  RH WIND       PRES   REMARKS
RUIDOSO        CLEAR     45  16  31 W3        30.30S

$$
NMZ527>531-271300-
NORTHEAST HIGHLANDS/NORTHEAST PLAINS

CITY           SKY/WX    TMP DP  RH WIND       PRES   REMARKS
LAS VEGAS      PTCLDY    34  18  52 N3        30.24S
6HR MIN TEMP:  32; 6HR MAX TEMP:  47;

RATON          CLEAR     29  21  72 E7        30.22R WCI  22
6HR MIN TEMP:  27; 6HR MAX TEMP:  43;

CLAYTON        CLEAR     39  24  55 N6        30.19R WCI  35
6HR MIN TEMP:  33; 6HR MAX TEMP:  46;


$$
NMZ532>537-271300-
EASTCENTRAL PLAINS

CITY           SKY/WX    TMP DP  RH WIND       PRES   REMARKS
TUCUMCARI      CLEAR     38  25  59 NW6       30.16R WCI  33
6HR MIN TEMP:  36; 6HR MAX TEMP:  46;

CANNON AFB     PTCLDY    39  26  59 W5        30.16
6HR MIN TEMP:  37; 6HR MAX TEMP:  46;

CLOVIS AIRPORT PTCLDY    37  23  56 W7        30.16S WCI  32

$$
NMZ028-029-538-271300-
SOUTHEAST PLAINS

CITY           SKY/WX    TMP DP  RH WIND       PRES   REMARKS
ROSWELL        CLEAR     36  28  73 N5        30.19R WCI  32
6HR MIN TEMP:  34; 6HR MAX TEMP:  43;

ARTESIA        CLEAR     39  27  60 CALM      30.20R
CARLSBAD       CLEAR     36  30  79 CALM      30.17R
6HR MIN TEMP:  36; 6HR MAX TEMP:  50;

HOBBS          CLEAR     37  25  60 SW7       30.20S WCI  32


$$


USA.gov is the U.S. government's official web portal to all federal, state and local government web resources and services.